Regional Weather Roundup
Issued by NWS

Home | Current Version | Previous Version | Text Only | Print | Product List | Glossary Off
Versions: 1 2 3 4 5 6 7 8 9 10 11 12 13 14 15 16 17 18 19 20 21 22 23 24 25 26 27 28 29 30 31 32 33 34 35 36 37 38 39 40 41 42 43 44 45 46 47 48 49 50

000
ASUS43 KBIS 100802
RWRND

NORTH DAKOTA REGIONAL WEATHER ROUNDUP
NATIONAL WEATHER SERVICE BISMARCK ND
200 AM CST SAT DEC 10 2016

NOTE: "FAIR" INDICATES FEW OR NO CLOUDS BELOW 12,000 FEET WITH NO
SIGNIFICANT WEATHER AND/OR OBSTRUCTIONS TO VISIBILITY.


NDZ001>003-009>011-017-100900-
NORTHWEST NORTH DAKOTA

CITY           SKY/WX    TMP DP  RH WIND       PRES   REMARKS
WILLISTON      CLOUDY   -15 -19  82 NE3       30.39F
MINOT          CLOUDY   -17 -21  82 SW8       30.44S WCI -35
MINOT AFB      CLOUDY   -23 -30  72 W7        30.44S WCI -41
$$

NDZ018>021-031>035-040>046-100900-
SOUTHWEST NORTH DAKOTA

CITY           SKY/WX    TMP DP  RH WIND       PRES   REMARKS
BISMARCK       CLOUDY   -16 -21  78 E6        30.48S WCI -31
DICKINSON      CLOUDY    -9 -14  78 SE6       30.29F WCI -22
GARRISON         N/A    -18 -23  77 N5        30.41F WCI -31
HETTINGER ARPT CLOUDY    -7 -10  87 SE6       30.29F WCI -20
$$

NDZ004>008-012>016-024-026-027-054-100900-
NORTHEAST NORTH DAKOTA

CITY           SKY/WX    TMP DP  RH WIND       PRES   REMARKS
GRAND FORKS    CLOUDY    -3  -8  79 NW6       30.55S WCI -15
GRND FRKS AFB  CLOUDY    -3 -10  72 N7        30.54S WCI -17
DEVILS LAKE    CLOUDY   -17 -22  78 NW5       30.48F WCI -30
$$

NDZ022-023-025-028>030-036>039-047>053-100900-
SOUTHEAST NORTH DAKOTA

CITY           SKY/WX    TMP DP  RH WIND       PRES   REMARKS
FARGO          CLOUDY    -8 -14  74 W5        30.55F WCI -19
JAMESTOWN      CLOUDY   -15 -19  82 NW6       30.47F WCI -29
$$




USA.gov is the U.S. government's official web portal to all federal, state and local government web resources and services.